This demonstration page uses our WeatherBlox Daily Observations layout. Learn more.

Left ArrowRight Arrow

Hourly Observations for October 3, 2016

Temp ( °F °C ) Dew Point ( °F °C ) Humidity (%) Winds ( mph kmh ) Pressure ( in mb ) Visibility ( mi km ) Precip ( " mm )
12:16 am 00:16 Clear 50 10 50 10 100 100 N N/A 30.12 1020 10 16.0934 N/A
12:35 am 00:35 Clear 50 10 48 9 94 94 N N/A 30.12 1020 10 16.0934 N/A
12:56 am 00:56 Clear 50 10 48 9 94 94 N N/A 30.12 1020 10 16.0934 N/A
1:16 am 01:16 Clear 50 10 48 9 94 94 N N/A 30.12 1020 10 16.0934 N/A
1:36 am 01:36 Clear 50 10 48 9 94 94 N N/A 30.12 1020 3 4.82802 N/A
1:56 am 01:56 Clear 50 10 48 9 94 94 N N/A 30.12 1020 7 11.26538 N/A
2:15 am 02:15 Clear 48 9 48 9 100 100 N N/A 30.12 1020 4 6.43736 N/A
2:36 am 02:36 Mostly Cloudy 48 9 48 9 100 100 N N/A 30.12 1020 1.5 2.41401 N/A
2:56 am 02:56 Clear 48 9 48 9 100 100 N N/A 30.12 1020 7 11.26538 N/A
3:15 am 03:15 Mostly Cloudy 48 9 48 9 100 100 N N/A 30.12 1020 0.5 0.80467 N/A
3:36 am 03:36 Mostly Cloudy 48 9 48 9 100 100 N N/A 30.12 1020 0.5 0.80467 N/A
3:56 am 03:56 Mostly Cloudy 48 9 48 9 100 100 N N/A 30.12 1020 1.5 2.41401 N/A
4:15 am 04:15 Mostly Cloudy 48 9 46 8 94 94 N N/A 30.12 1020 1 1.60934 N/A
4:36 am 04:36 Mostly Cloudy 48 9 48 9 100 100 N N/A 30.12 1020 0.5 0.80467 N/A
4:56 am 04:56 Mostly Cloudy 46 8 46 8 100 100 N N/A 30.12 1020 0.25 0.402335 N/A
5:15 am 05:15 Mostly Cloudy 48 9 46 8 94 94 N N/A 30.12 1020 0.75 1.207005 N/A
5:36 am 05:36 Mostly Cloudy 48 9 48 9 100 100 N N/A 30.12 1020 0.75 1.207005 N/A
5:56 am 05:56 Clear 46 8 46 8 100 100 N N/A 30.12 1020 2 3.21868 N/A
6:15 am 06:15 Mostly Cloudy 46 8 46 8 100 100 N N/A 30.12 1020 0.75 1.207005 N/A
6:36 am 06:36 Mostly Cloudy 46 8 46 8 100 100 N N/A 30.12 1020 0.5 0.80467 N/A
6:56 am 06:56 Mostly Cloudy 46 8 46 8 100 100 N N/A 30.12 1020 0.75 1.207005 N/A
7:15 am 07:15 Mostly Cloudy 46 8 46 8 100 100 N N/A 30.12 1020 0.5 0.80467 N/A
7:36 am 07:36 Cloudy 46 8 46 8 100 100 N N/A 30.12 1020 0.25 0.402335 N/A
7:56 am 07:56 Cloudy 46 8 46 8 100 100 N N/A 30.15 1021 5 8.0467 N/A
8:15 am 08:15 Cloudy 46 8 46 8 100 100 N N/A 30.15 1021 5 8.0467 N/A
8:36 am 08:36 Cloudy 48 9 48 9 100 100 N N/A 30.15 1021 5 8.0467 N/A
8:56 am 08:56 Mostly Cloudy 50 10 50 10 100 100 N N/A 30.15 1021 5 8.0467 N/A
9:15 am 09:15 Mostly Cloudy 54 12 54 12 100 100 N N/A 30.15 1021 5 8.0467 N/A
9:36 am 09:36 Mostly Cloudy 55 13 55 13 100 100 N N/A 30.12 1020 0.75 1.207005 N/A
9:56 am 09:56 Sunny 57 14 55 13 94 94 N N/A 30.12 1020 4 6.43736 N/A
10:15 am 10:15 Sunny 59 15 55 13 88 88 N N/A 30.12 1020 7 11.26538 N/A
10:36 am 10:36 Sunny 61 16 55 13 83 83 N N/A 30.12 1020 10 16.0934 N/A
10:56 am 10:56 Sunny 63 17 57 14 83 83 N N/A 30.12 1020 10 16.0934 N/A
11:15 am 11:15 Sunny 66 19 55 13 68 68 N N/A 30.12 1020 10 16.0934 N/A
11:36 am 11:36 Sunny 66 19 54 12 64 64 N N/A 30.12 1020 7 11.26538 N/A
11:56 am 11:56 Mostly Cloudy 68 20 55 13 64 64 WNW 3 6 30.12 1020 5 8.0467 N/A
12:16 pm 12:16 Mostly Cloudy 70 21 55 13 60 60 N 5 7 30.12 1020 7 11.26538 N/A
12:36 pm 12:36 Mostly Cloudy 68 20 55 13 64 64 N N/A 30.12 1020 10 16.0934 N/A
12:56 pm 12:56 Partly Cloudy 66 19 54 12 64 64 N N/A 30.12 1020 10 16.0934 N/A
1:16 pm 13:16 Mostly Cloudy 68 20 55 13 64 64 NNW 6 9 30.12 1020 10 16.0934 N/A
1:36 pm 13:36 Mostly Cloudy 68 20 55 13 64 64 NNE 5 7 30.09 1019 10 16.0934 N/A
1:56 pm 13:56 Mostly Cloudy 68 20 55 13 64 64 NE 3 6 30.09 1019 3 4.82802 N/A
2:16 pm 14:16 Mostly Cloudy 68 20 55 13 64 64 N N/A 30.09 1019 4 6.43736 N/A
2:36 pm 14:36 Cloudy 68 20 52 11 56 56 N N/A 30.09 1019 10 16.0934 N/A
2:56 pm 14:56 Mostly Cloudy 68 20 54 12 60 60 N N/A 30.06 1018 10 16.0934 N/A
3:16 pm 15:16 Mostly Cloudy 68 20 54 12 60 60 N N/A 30.06 1018 10 16.0934 N/A
3:36 pm 15:36 Cloudy 70 21 55 13 60 60 N N/A 30.06 1018 10 16.0934 N/A
3:56 pm 15:56 Cloudy 68 20 55 13 64 64 N N/A 30.06 1018 10 16.0934 N/A
4:16 pm 16:16 Cloudy 68 20 55 13 64 64 N N/A 30.06 1018 10 16.0934 N/A
4:36 pm 16:36 Cloudy 68 20 55 13 64 64 NNW 3 6 30.06 1018 10 16.0934 N/A
4:56 pm 16:56 Cloudy 68 20 55 13 64 64 N 3 6 30.06 1018 10 16.0934 N/A
5:16 pm 17:16 Cloudy 68 20 55 13 64 64 NNE 3 6 30.06 1018 10 16.0934 N/A
5:36 pm 17:36 Cloudy 68 20 55 13 64 64 NNE 5 7 30.06 1018 10 16.0934 N/A
5:55 pm 17:55 Cloudy 68 20 55 13 64 64 NNE 5 7 30.06 1018 10 16.0934 N/A
6:16 pm 18:16 Cloudy 68 20 55 13 64 64 NNE 5 7 30.06 1018 10 16.0934 N/A
6:36 pm 18:36 Cloudy 68 20 55 13 64 64 ENE 5 7 30.06 1018 10 16.0934 N/A
6:55 pm 18:55 Cloudy 68 20 55 13 64 64 NE 5 7 30.06 1018 10 16.0934 N/A
7:16 pm 19:16 Partly Cloudy 64 18 55 13 73 73 ENE 3 6 30.06 1018 10 16.0934 N/A
7:36 pm 19:36 Clear 64 18 54 12 68 68 N N/A 30.06 1018 10 16.0934 N/A
7:55 pm 19:55 Clear 61 16 54 12 77 77 N N/A 30.06 1018 10 16.0934 N/A
8:16 pm 20:16 Partly Cloudy 61 16 54 12 77 77 N N/A 30.06 1018 10 16.0934 N/A
8:36 pm 20:36 Partly Cloudy 59 15 54 12 82 82 N N/A 30.06 1018 10 16.0934 N/A
8:55 pm 20:55 Partly Cloudy 57 14 54 12 88 88 N N/A 30.06 1018 10 16.0934 N/A
9:16 pm 21:16 Partly Cloudy 59 15 54 12 82 82 N N/A 30.09 1019 10 16.0934 N/A
9:36 pm 21:36 Clear 57 14 54 12 88 88 N N/A 30.09 1019 10 16.0934 N/A
9:55 pm 21:55 Clear 54 12 54 12 100 100 N N/A 30.12 1020 10 16.0934 N/A
10:16 pm 22:16 Clear 55 13 54 12 94 94 N N/A 30.09 1019 10 16.0934 N/A
10:36 pm 22:36 Clear 54 12 52 11 94 94 N N/A 30.09 1019 10 16.0934 N/A
10:55 pm 22:55 Clear 52 11 52 11 100 100 N N/A 30.09 1019 10 16.0934 N/A
11:16 pm 23:16 Clear 54 12 52 11 94 94 N N/A 30.09 1019 10 16.0934 N/A
11:36 pm 23:36 Clear 52 11 52 11 100 100 N N/A 30.12 1020 10 16.0934 N/A
11:56 pm 23:56 Clear 54 12 52 11 94 94 N N/A 30.12 1020 10 16.0934 N/A

Powered by AerisWeather